Weather History for KHEI - October, 2012

Change the Weather History Date:

Thursday, October 4, 2012

  Actual Average Record
Temperature  
Mean Temperature 32 °F -  
Max Temperature 42 °F 62 °F 89 °F (2011)
Min Temperature 22 °F 34 °F 21 °F (2004)
Degree Days  
Heating Degree Days 33 17  
Month to date heating degree days 68 66  
Since 1 July heating degree days 349 437  
Cooling Degree Days 0 0  
Month to date cooling degree days 0 0  
Year to date cooling degree days 581 376  
Moisture  
Dew Point 28 °F    
Average Humidity 80    
Maximum Humidity 96    
Minimum Humidity 55    
Precipitation  
Precipitation 0.01 in 0.02 in 1.30 in (1998)
Month to date precipitation 0.20 0.11  
Year to date precipitation 14.00 14.03  
Sea Level Pressure  
Sea Level Pressure 30.39 in    
Wind  
Wind Speed 12 mph (NW)    
Max Wind Speed 18 mph    
Max Gust Speed 27 mph    
Visibility 10 miles    
Events Snow    
T = Trace of Precipitation, MM = Missing Value Source: NWS Daily Summary

Daily Weather History Graph

Daily Weather History Graph

Search for Another Location

Airport or City:

Trip Planner

Search our weather history database for the weather conditions in past years. The results will help you decide how hot, cold, wet, or windy it might be!

Date:

Astronomy

Oct. 04, 2012 Rise Set
Actual Time 6:53 AM MDT 6:23 PM MDT
Civil Twilight 6:23 AM MDT 6:53 PM MDT
Nautical Twilight 5:49 AM MDT 7:28 PM MDT
Astronomical Twilight 5:14 AM MDT 8:03 PM MDT
Moon 8:46 PM MDT (10/4) 11:27 AM MDT (10/4)
Length of Visible Light 12h 29m
Length of Day
11h 30m
Waning Gibbous, 81% of the Moon is Illuminated
Oct 4
Waning Gibbous
Oct 8
Last Quarter
Oct 15
New
Oct 21
First Quarter
Oct 29
Full

Hourly Weather History & Observations

Time (MDT) Temp. Windchill Dew Point Humidity Pressure Visibility Wind Dir Wind Speed Gust Speed Precip Events Conditions
12:14 AM 33.8 °F 23.2 °F 32.0 °F 93% 30.29 in 10.0 mi NNW 17.3 mph 25.3 mph N/A   Overcast
12:53 AM 34.0 °F 24.6 °F 32.0 °F 92% 30.36 in 10.0 mi NNW 13.8 mph - N/A   Overcast
1:53 AM 34.0 °F 24.2 °F 30.9 °F 89% 30.38 in 10.0 mi NNW 15.0 mph - N/A   Overcast
2:53 AM 34.0 °F 23.8 °F 30.9 °F 89% 30.39 in 10.0 mi NNW 16.1 mph 24.2 mph 0.01 in   Overcast
3:53 AM 34.0 °F 24.6 °F 30.9 °F 89% 30.40 in 10.0 mi NNW 13.8 mph - N/A   Overcast
4:02 AM 33.8 °F 25.3 °F 30.2 °F 87% 30.32 in 10.0 mi NNW 11.5 mph - N/A   Overcast
4:53 AM 34.0 °F 25.5 °F 30.0 °F 85% 30.41 in 10.0 mi NNW 11.5 mph - N/A   Overcast
5:13 AM 33.8 °F 25.3 °F 30.2 °F 87% 30.33 in 10.0 mi NW 11.5 mph - N/A   Overcast
5:20 AM 33.8 °F 25.3 °F 30.2 °F 87% 30.33 in 10.0 mi NW 11.5 mph - N/A   Overcast
5:53 AM 34.0 °F 27.2 °F 30.9 °F 89% 30.42 in 8.0 mi NW 8.1 mph 18.4 mph 0.00 in Snow Light Snow
6:05 AM 33.8 °F 27.0 °F 30.2 °F 87% 30.34 in 5.0 mi NNW 8.1 mph - 0.00 in Snow Light Snow
6:28 AM 33.8 °F 25.8 °F 30.2 °F 87% 30.34 in 10.0 mi NW 10.4 mph - 0.00 in   Overcast
6:53 AM 34.0 °F 25.0 °F 30.9 °F 89% 30.42 in 10.0 mi NW 12.7 mph - 0.00 in   Overcast
7:04 AM 33.8 °F 25.8 °F 30.2 °F 87% 30.34 in 10.0 mi NW 10.4 mph - N/A   Overcast
7:27 AM 33.8 °F 24.8 °F 30.2 °F 87% 30.34 in 2.5 mi NW 12.7 mph - 0.00 in Snow Light Snow
7:42 AM 33.8 °F 24.3 °F 30.2 °F 87% 30.35 in 9.0 mi NNW 13.8 mph - 0.00 in   Overcast
7:53 AM 34.0 °F 26.0 °F 30.9 °F 89% 30.43 in 10.0 mi NW 10.4 mph - 0.00 in   Overcast
8:51 AM 35.6 °F 25.2 °F 30.2 °F 81% 30.35 in 10.0 mi NW 18.4 mph 24.2 mph N/A   Overcast
8:53 AM 35.1 °F 24.8 °F 30.0 °F 82% 30.43 in 10.0 mi NW 17.3 mph 24.2 mph N/A   Overcast
9:00 AM 35.6 °F 26.2 °F 30.2 °F 81% 30.35 in 10.0 mi NW 15.0 mph - N/A   Overcast
9:53 AM 36.0 °F 26.0 °F 28.0 °F 73% 30.43 in 10.0 mi NW 17.3 mph - N/A   Overcast
10:53 AM 37.9 °F 28.2 °F 28.9 °F 70% 30.43 in 10.0 mi NNW 18.4 mph 24.2 mph N/A   Overcast
11:53 AM 37.9 °F 28.2 °F 28.0 °F 68% 30.43 in 10.0 mi NNW 18.4 mph 24.2 mph N/A   Mostly Cloudy
12:53 PM 39.0 °F 30.3 °F 27.0 °F 62% 30.42 in 10.0 mi NNW 16.1 mph 24.2 mph N/A   Mostly Cloudy
1:53 PM 39.9 °F 32.1 °F 27.0 °F 60% 30.41 in 10.0 mi NNW 13.8 mph - N/A   Overcast
2:42 PM 39.2 °F 30.8 °F 26.6 °F 61% 30.34 in 10.0 mi NW 15.0 mph 23.0 mph N/A   Overcast
2:53 PM 41.0 °F 32.5 °F 26.1 °F 55% 30.40 in 10.0 mi NW 17.3 mph 26.5 mph N/A   Overcast
4:53 PM 39.9 °F 32.9 °F 26.1 °F 58% 30.40 in 10.0 mi North 11.5 mph - N/A   Overcast
5:53 PM 39.0 °F 32.3 °F 26.1 °F 60% 30.40 in 10.0 mi NNW 10.4 mph - N/A   Clear
6:53 PM 32.0 °F 25.6 °F 25.0 °F 75% 30.43 in 10.0 mi NNW 6.9 mph - N/A   Clear
7:53 PM 30.9 °F 23.5 °F 25.0 °F 79% 30.43 in 10.0 mi North 8.1 mph - N/A   Clear
8:53 PM 24.1 °F 19.7 °F 21.0 °F 88% 30.44 in 10.0 mi West 3.5 mph - N/A   Clear
9:53 PM 25.0 °F - 21.0 °F 85% 30.44 in 10.0 mi Calm Calm - N/A   Clear
10:53 PM 24.1 °F - 19.9 °F 84% 30.44 in 10.0 mi Calm Calm - N/A   Clear
11:53 PM 24.1 °F 19.7 °F 19.9 °F 84% 30.43 in 10.0 mi West 3.5 mph - N/A   Clear